Time,TemperatureF,DewpointF,PressureIn,WindDirection,WindDirectionDegrees,WindSpeedMPH,WindSpeedGustMPH,Humidity,HourlyPrecipIn,Conditions,Clouds,dailyrainin,SoftwareType,DateUTC
2013-04-19 00:03:00,52.0,45.0,30.00,West,266,0.0,2.0,77,0.00,,,0.00,,2013-04-19 04:03:00,
2013-04-19 00:13:00,52.0,45.0,30.00,West,266,0.0,2.0,77,0.00,,,0.00,,2013-04-19 04:13:00,
2013-04-19 00:23:00,52.0,45.0,30.00,West,262,0.0,4.0,77,0.00,,,0.00,,2013-04-19 04:23:00,
2013-04-19 00:33:00,52.0,45.0,29.99,NNW,342,0.0,2.0,78,0.00,,,0.00,,2013-04-19 04:33:00,
2013-04-19 00:43:00,52.0,45.0,29.99,WNW,296,0.0,2.0,78,0.00,,,0.00,,2013-04-19 04:43:00,
2013-04-19 00:52:00,52.0,45.0,29.99,WNW,296,0.0,2.0,78,0.00,,,0.00,,2013-04-19 04:52:00,
2013-04-19 01:03:00,52.0,46.0,29.99,WNW,283,0.0,2.0,79,0.00,,,0.00,,2013-04-19 05:03:00,
2013-04-19 01:12:00,52.0,46.0,29.99,WNW,283,0.0,2.0,79,0.00,,,0.00,,2013-04-19 05:12:00,
2013-04-19 01:22:00,52.0,46.0,29.98,NNW,333,0.0,1.0,80,0.00,,,0.00,,2013-04-19 05:22:00,
2013-04-19 01:32:00,52.0,46.0,29.96,WNW,291,0.0,2.0,81,0.00,,,0.00,,2013-04-19 05:32:00,
2013-04-19 01:42:00,52.0,46.0,29.96,WNW,291,0.0,2.0,81,0.00,,,0.00,,2013-04-19 05:42:00,
2013-04-19 01:52:00,52.0,47.0,29.96,NW,307,0.0,3.0,82,0.00,,,0.00,,2013-04-19 05:52:00,
2013-04-19 02:02:00,52.0,47.0,29.95,WNW,297,0.0,2.0,83,0.00,,,0.00,,2013-04-19 06:02:00,
2013-04-19 02:12:00,52.0,47.0,29.95,WNW,297,0.0,2.0,83,0.00,,,0.00,,2013-04-19 06:12:00,
2013-04-19 02:22:00,52.0,47.0,29.95,NW,307,1.0,2.0,84,0.00,,,0.00,,2013-04-19 06:22:00,
2013-04-19 02:32:00,52.0,47.0,29.94,NNE,13,0.0,2.0,84,0.00,,,0.00,,2013-04-19 06:32:00,
2013-04-19 02:42:00,52.0,47.0,29.94,NNE,13,0.0,2.0,84,0.00,,,0.00,,2013-04-19 06:42:00,
2013-04-19 02:52:00,53.0,49.0,29.93,ENE,62,0.0,2.0,86,0.00,,,0.00,,2013-04-19 06:52:00,
2013-04-19 03:02:00,53.0,49.0,29.93,East,91,0.0,4.0,85,0.00,,,0.00,,2013-04-19 07:02:00,
2013-04-19 03:12:00,53.0,49.0,29.93,East,91,0.0,4.0,85,0.00,,,0.00,,2013-04-19 07:12:00,
2013-04-19 03:21:00,55.0,51.0,29.92,East,96,0.0,3.0,86,0.00,,,0.00,,2013-04-19 07:21:00,
2013-04-19 03:32:00,56.0,51.0,29.91,ENE,58,1.0,4.0,84,0.00,,,0.00,,2013-04-19 07:32:00,
2013-04-19 03:42:00,56.0,51.0,29.91,ENE,58,1.0,4.0,84,0.00,,,0.00,,2013-04-19 07:42:00,
2013-04-19 03:52:00,56.0,51.0,29.92,West,274,0.0,2.0,84,0.00,,,0.00,,2013-04-19 07:52:00,
2013-04-19 04:02:00,56.0,51.0,29.92,West,274,0.0,2.0,84,0.00,,,0.00,,2013-04-19 08:02:00,
2013-04-19 04:12:00,54.0,49.0,29.92,West,274,0.0,1.0,84,0.00,,,0.00,,2013-04-19 08:12:00,
2013-04-19 04:22:00,54.0,49.0,29.92,West,274,0.0,1.0,84,0.00,,,0.00,,2013-04-19 08:22:00,
2013-04-19 04:33:00,54.0,50.0,29.91,WNW,293,0.0,2.0,85,0.00,,,0.00,,2013-04-19 08:33:00,
2013-04-19 04:42:00,54.0,50.0,29.91,WNW,293,0.0,2.0,85,0.00,,,0.00,,2013-04-19 08:42:00,
2013-04-19 04:52:00,53.0,49.0,29.90,WNW,283,0.0,2.0,86,0.00,,,0.00,,2013-04-19 08:52:00,
2013-04-19 05:01:00,54.0,50.0,29.88,NW,319,0.0,2.0,87,0.00,,,0.00,,2013-04-19 09:01:00,
2013-04-19 05:12:00,54.0,50.0,29.88,NW,319,0.0,2.0,87,0.00,,,0.00,,2013-04-19 09:12:00,
2013-04-19 05:21:00,54.0,50.0,29.87,West,271,0.0,1.0,87,0.00,,,0.00,,2013-04-19 09:21:00,
2013-04-19 05:33:00,54.0,50.0,29.87,West,273,0.0,2.0,87,0.00,,,0.00,,2013-04-19 09:33:00,
2013-04-19 05:43:00,54.0,50.0,29.87,West,273,0.0,2.0,87,0.00,,,0.00,,2013-04-19 09:43:00,
2013-04-19 05:52:00,53.0,50.0,29.88,NNW,331,0.0,1.0,89,0.00,,,0.00,,2013-04-19 09:52:00,
2013-04-19 06:02:00,53.0,50.0,29.87,North,352,0.0,1.0,88,0.00,,,0.00,,2013-04-19 10:02:00,
2013-04-19 06:13:00,54.0,51.0,29.86,NW,314,0.0,2.0,89,0.00,,,0.00,,2013-04-19 10:13:00,
2013-04-19 06:23:00,54.0,51.0,29.86,NW,314,0.0,2.0,89,0.00,,,0.00,,2013-04-19 10:23:00,
2013-04-19 06:33:00,55.0,51.0,29.87,WNW,285,0.0,1.0,87,0.00,,,0.00,,2013-04-19 10:33:00,
2013-04-19 06:42:00,54.0,51.0,29.87,WNW,282,0.0,0.0,89,0.00,,,0.00,,2013-04-19 10:42:00,
2013-04-19 06:52:00,54.0,51.0,29.87,WNW,282,0.0,0.0,89,0.00,,,0.00,,2013-04-19 10:52:00,
2013-04-19 07:03:00,54.0,51.0,29.87,ENE,58,0.0,1.0,88,0.00,,,0.00,,2013-04-19 11:03:00,
2013-04-19 07:11:00,54.0,51.0,29.87,ENE,58,0.0,1.0,88,0.00,,,0.00,,2013-04-19 11:11:00,
2013-04-19 07:22:00,54.0,51.0,29.87,West,281,0.0,1.0,90,0.00,,,0.00,,2013-04-19 11:22:00,
2013-04-19 07:32:00,54.0,51.0,29.86,WNW,295,0.0,1.0,89,0.00,,,0.00,,2013-04-19 11:32:00,
2013-04-19 07:42:00,54.0,51.0,29.86,WNW,295,0.0,1.0,89,0.00,,,0.00,,2013-04-19 11:42:00,
2013-04-19 07:52:00,55.0,52.0,29.86,ESE,105,0.0,1.0,90,0.00,,,0.00,,2013-04-19 11:52:00,
2013-04-19 08:03:00,55.0,52.0,29.86,ESE,105,0.0,1.0,88,0.00,,,0.00,,2013-04-19 12:03:00,
2013-04-19 08:12:00,56.0,53.0,29.86,ESE,115,0.0,3.0,89,0.00,,,0.00,,2013-04-19 12:12:00,
2013-04-19 08:22:00,56.0,53.0,29.86,ESE,115,0.0,3.0,89,0.00,,,0.00,,2013-04-19 12:22:00,
2013-04-19 08:32:00,58.0,54.0,29.85,SSE,148,1.0,4.0,86,0.00,,,0.00,,2013-04-19 12:32:00,
2013-04-19 08:42:00,58.0,54.0,29.85,SSE,148,1.0,4.0,86,0.00,,,0.00,,2013-04-19 12:42:00,
2013-04-19 08:52:00,59.0,54.0,29.84,ESE,120,0.0,4.0,84,0.00,,,0.00,,2013-04-19 12:52:00,
2013-04-19 09:02:00,61.0,56.0,29.83,ESE,117,1.0,3.0,83,0.00,,,0.00,,2013-04-19 13:02:00,
2013-04-19 09:11:00,61.0,56.0,29.83,ESE,117,1.0,3.0,83,0.00,,,0.00,,2013-04-19 13:11:00,
2013-04-19 09:22:00,62.0,56.0,29.82,East,83,1.0,11.0,80,0.00,,,0.00,,2013-04-19 13:22:00,
2013-04-19 09:32:00,63.0,56.0,29.81,East,86,2.0,6.0,78,0.00,,,0.00,,2013-04-19 13:32:00,
2013-04-19 09:42:00,63.0,56.0,29.81,East,86,2.0,6.0,78,0.00,,,0.00,,2013-04-19 13:42:00,
2013-04-19 09:52:00,63.0,56.0,29.81,SE,131,1.0,7.0,78,0.00,,,0.00,,2013-04-19 13:52:00,
2013-04-19 10:02:00,63.0,56.0,29.80,SSE,152,3.0,10.0,77,0.00,,,0.00,,2013-04-19 14:02:00,
2013-04-19 10:11:00,63.0,56.0,29.80,SSE,152,3.0,10.0,77,0.00,,,0.00,,2013-04-19 14:11:00,
2013-04-19 10:22:00,64.0,56.0,29.80,SE,139,3.0,7.0,76,0.00,,,0.00,,2013-04-19 14:22:00,
2013-04-19 10:32:00,65.0,56.0,29.79,SE,139,1.0,7.0,74,0.00,,,0.00,,2013-04-19 14:32:00,
2013-04-19 10:43:00,65.0,56.0,29.79,SE,139,1.0,7.0,74,0.00,,,0.00,,2013-04-19 14:43:00,
2013-04-19 10:52:00,65.0,56.0,29.78,SE,127,3.0,8.0,74,0.00,,,0.00,,2013-04-19 14:52:00,
2013-04-19 11:02:00,65.0,56.0,29.77,WNW,287,2.0,8.0,74,0.00,,,0.00,,2013-04-19 15:02:00,
2013-04-19 11:12:00,65.0,56.0,29.77,WNW,287,2.0,8.0,74,0.00,,,0.00,,2013-04-19 15:12:00,
2013-04-19 11:22:00,65.0,56.0,29.76,East,89,3.0,9.0,73,0.00,,,0.00,,2013-04-19 15:22:00,
2013-04-19 11:33:00,66.0,57.0,29.75,SE,126,6.0,11.0,72,0.00,,,0.00,,2013-04-19 15:33:00,
2013-04-19 11:43:00,66.0,57.0,29.75,SE,126,6.0,11.0,72,0.00,,,0.00,,2013-04-19 15:43:00,
2013-04-19 11:52:00,66.0,57.0,29.74,East,93,4.0,12.0,72,0.00,,,0.00,,2013-04-19 15:52:00,
2013-04-19 12:03:00,67.0,58.0,29.72,SE,131,2.0,7.0,72,0.00,,,0.00,,2013-04-19 16:03:00,
2013-04-19 12:13:00,67.0,58.0,29.72,SE,131,2.0,7.0,72,0.00,,,0.00,,2013-04-19 16:13:00,
2013-04-19 12:23:00,68.0,58.0,29.72,ESE,111,3.0,8.0,70,0.00,,,0.00,,2013-04-19 16:23:00,
2013-04-19 12:33:00,70.0,56.0,29.72,South,169,5.0,11.0,62,0.00,,,0.00,,2013-04-19 16:33:00,
2013-04-19 12:42:00,70.0,56.0,29.72,South,169,5.0,11.0,62,0.00,,,0.00,,2013-04-19 16:42:00,
2013-04-19 12:52:00,69.0,56.0,29.71,NNW,346,3.0,14.0,64,0.00,,,0.00,,2013-04-19 16:52:00,
2013-04-19 13:02:00,69.0,56.0,29.70,SSE,162,4.0,10.0,64,0.00,,,0.00,,2013-04-19 17:02:00,
2013-04-19 13:12:00,69.0,56.0,29.70,SSE,162,4.0,10.0,64,0.00,,,0.00,,2013-04-19 17:12:00,
2013-04-19 13:22:00,69.0,57.0,29.70,ESE,117,5.0,13.0,66,0.00,,,0.00,,2013-04-19 17:22:00,
2013-04-19 13:33:00,69.0,57.0,29.69,SE,125,6.0,15.0,66,0.00,,,0.00,,2013-04-19 17:33:00,
2013-04-19 13:42:00,69.0,57.0,29.69,SE,125,6.0,15.0,66,0.00,,,0.00,,2013-04-19 17:42:00,
2013-04-19 13:52:00,68.0,57.0,29.69,SE,145,8.0,22.0,68,0.00,,,0.00,,2013-04-19 17:52:00,
2013-04-19 14:02:00,68.0,57.0,29.69,ESE,120,6.0,17.0,68,0.00,,,0.00,,2013-04-19 18:02:00,
2013-04-19 14:13:00,68.0,57.0,29.69,ESE,120,6.0,17.0,68,0.00,,,0.00,,2013-04-19 18:13:00,
2013-04-19 14:23:00,68.0,57.0,29.67,SE,143,8.0,20.0,68,0.00,,,0.00,,2013-04-19 18:23:00,
2013-04-19 14:33:00,68.0,57.0,29.67,ESE,105,7.0,18.0,68,0.00,,,0.00,,2013-04-19 18:33:00,
2013-04-19 14:43:00,68.0,57.0,29.67,ESE,105,7.0,18.0,68,0.00,,,0.00,,2013-04-19 18:43:00,
2013-04-19 14:52:00,68.0,57.0,29.66,SE,125,8.0,16.0,68,0.00,,,0.00,,2013-04-19 18:52:00,
2013-04-19 15:02:00,68.0,57.0,29.66,SE,141,4.0,15.0,69,0.00,,,0.00,,2013-04-19 19:02:00,
2013-04-19 15:11:00,68.0,57.0,29.66,SE,141,4.0,15.0,69,0.00,,,0.00,,2013-04-19 19:11:00,
2013-04-19 15:21:00,67.0,57.0,29.65,SE,131,3.0,11.0,71,0.00,,,0.00,,2013-04-19 19:21:00,
2013-04-19 15:32:00,68.0,58.0,29.63,SE,130,4.0,12.0,70,0.00,,,0.00,,2013-04-19 19:32:00,
2013-04-19 15:42:00,68.0,58.0,29.63,SE,130,4.0,12.0,70,0.00,,,0.00,,2013-04-19 19:42:00,
2013-04-19 15:52:00,67.0,57.0,29.58,ESE,121,4.0,15.0,71,0.00,,,0.00,,2013-04-19 19:52:00,
2013-04-19 16:02:00,68.0,58.0,29.54,East,100,3.0,11.0,71,0.00,,,0.00,,2013-04-19 20:02:00,
2013-04-19 16:11:00,68.0,58.0,29.54,East,100,3.0,11.0,71,0.00,,,0.00,,2013-04-19 20:11:00,
2013-04-19 16:22:00,68.0,58.0,29.56,SE,124,4.0,18.0,70,0.00,,,0.00,,2013-04-19 20:22:00,
2013-04-19 16:32:00,68.0,58.0,29.55,ESE,109,4.0,10.0,70,0.00,,,0.00,,2013-04-19 20:32:00,
2013-04-19 16:42:00,68.0,58.0,29.55,SE,139,3.0,11.0,70,0.00,,,0.00,,2013-04-19 20:42:00,
2013-04-19 16:52:00,68.0,58.0,29.55,SE,139,3.0,11.0,70,0.00,,,0.00,,2013-04-19 20:52:00,
2013-04-19 17:01:00,68.0,58.0,29.55,SE,132,4.0,9.0,70,0.00,,,0.00,,2013-04-19 21:01:00,
2013-04-19 17:11:00,69.0,58.0,29.56,West,280,2.0,14.0,69,0.00,,,0.00,,2013-04-19 21:11:00,
2013-04-19 17:21:00,69.0,58.0,29.56,West,280,2.0,14.0,69,0.00,,,0.00,,2013-04-19 21:21:00,
2013-04-19 17:32:00,69.0,58.0,29.55,SSE,155,4.0,7.0,69,0.00,,,0.00,,2013-04-19 21:32:00,
2013-04-19 17:43:00,69.0,58.0,29.55,SSE,155,4.0,7.0,69,0.00,,,0.00,,2013-04-19 21:43:00,
2013-04-19 17:52:00,69.0,58.0,29.54,SE,127,4.0,9.0,69,0.00,,,0.00,,2013-04-19 21:52:00,
2013-04-19 18:02:00,69.0,59.0,29.54,SE,135,3.0,9.0,70,0.00,,,0.00,,2013-04-19 22:02:00,
2013-04-19 18:12:00,69.0,59.0,29.54,SE,135,3.0,9.0,70,0.00,,,0.00,,2013-04-19 22:12:00,
2013-04-19 18:23:00,69.0,59.0,29.53,East,101,1.0,10.0,70,0.00,,,0.00,,2013-04-19 22:23:00,
2013-04-19 18:33:00,70.0,59.0,29.52,ESE,113,5.0,15.0,69,0.00,,,0.00,,2013-04-19 22:33:00,
2013-04-19 18:42:00,70.0,59.0,29.52,ESE,113,5.0,15.0,69,0.00,,,0.00,,2013-04-19 22:42:00,
2013-04-19 18:52:00,70.0,60.0,29.52,South,172,5.0,10.0,70,0.00,,,0.00,,2013-04-19 22:52:00,
2013-04-19 19:03:00,70.0,60.0,29.51,SE,140,3.0,10.0,71,0.00,,,0.00,,2013-04-19 23:03:00,
2013-04-19 19:11:00,70.0,60.0,29.51,SE,140,3.0,10.0,71,0.00,,,0.00,,2013-04-19 23:11:00,
2013-04-19 19:22:00,70.0,60.0,29.50,SE,127,1.0,8.0,71,0.00,,,0.00,,2013-04-19 23:22:00,
2013-04-19 19:32:00,70.0,60.0,29.50,North,8,3.0,14.0,70,0.00,,,0.00,,2013-04-19 23:32:00,
2013-04-19 19:42:00,70.0,60.0,29.50,North,8,3.0,14.0,70,0.00,,,0.00,,2013-04-19 23:42:00,
2013-04-19 20:02:00,51.0,45.0,29.58,West,281,7.0,29.0,80,0.00,,,0.00,,2013-04-20 00:02:00,
2013-04-19 20:12:00,51.0,45.0,29.58,West,281,7.0,29.0,80,0.00,,,0.00,,2013-04-20 00:12:00,
2013-04-19 20:22:00,47.0,43.0,29.63,WNW,282,4.0,23.0,87,0.05,,,0.05,,2013-04-20 00:22:00,
2013-04-19 20:32:00,46.0,43.0,29.63,NW,325,4.0,16.0,89,0.12,,,0.12,,2013-04-20 00:32:00,
2013-04-19 20:42:00,46.0,43.0,29.63,NW,325,4.0,16.0,89,0.12,,,0.12,,2013-04-20 00:42:00,
2013-04-19 20:52:00,45.0,42.0,29.65,NW,316,1.0,11.0,89,0.16,,,0.16,,2013-04-20 00:52:00,
2013-04-19 21:01:00,44.0,41.0,29.67,NNE,15,1.0,11.0,90,0.21,,,0.22,,2013-04-20 01:01:00,
2013-04-19 21:11:00,44.0,41.0,29.67,NNE,15,1.0,11.0,90,0.21,,,0.22,,2013-04-20 01:11:00,
2013-04-19 21:21:00,43.0,40.0,29.70,WNW,288,3.0,13.0,89,0.23,,,0.28,,2013-04-20 01:21:00,
2013-04-19 21:32:00,42.0,39.0,29.72,West,274,3.0,17.0,89,0.23,,,0.36,,2013-04-20 01:32:00,
2013-04-19 21:42:00,42.0,39.0,29.72,West,274,3.0,17.0,89,0.23,,,0.36,,2013-04-20 01:42:00,
2013-04-19 21:52:00,42.0,39.0,29.73,West,273,5.0,9.0,90,0.27,,,0.43,,2013-04-20 01:52:00,
2013-04-19 22:02:00,41.0,38.0,29.75,NW,309,2.0,6.0,89,0.23,,,0.46,,2013-04-20 02:02:00,
2013-04-19 22:11:00,41.0,38.0,29.75,NNW,328,2.0,8.0,90,0.21,,,0.50,,2013-04-20 02:11:00,
2013-04-19 22:21:00,41.0,38.0,29.75,NNW,328,2.0,8.0,90,0.21,,,0.50,,2013-04-20 02:21:00,
2013-04-19 22:32:00,41.0,38.0,29.76,NW,309,1.0,6.0,89,0.14,,,0.50,,2013-04-20 02:32:00,
2013-04-19 22:42:00,41.0,38.0,29.76,NW,309,1.0,6.0,89,0.14,,,0.50,,2013-04-20 02:42:00,
2013-04-19 22:52:00,41.0,38.0,29.77,West,276,0.0,2.0,88,0.08,,,0.51,,2013-04-20 02:52:00,
2013-04-19 23:01:00,41.0,37.0,29.78,WSW,251,0.0,7.0,87,0.05,,,0.51,,2013-04-20 03:01:00,
2013-04-19 23:11:00,41.0,37.0,29.78,WSW,251,0.0,7.0,87,0.05,,,0.51,,2013-04-20 03:11:00,
2013-04-19 23:21:00,41.0,37.0,29.78,WNW,301,1.0,4.0,87,0.01,,,0.51,,2013-04-20 03:21:00,
2013-04-19 23:33:00,41.0,37.0,29.78,NW,324,0.0,3.0,87,0.01,,,0.51,,2013-04-20 03:33:00,
2013-04-19 23:43:00,41.0,37.0,29.78,NW,324,0.0,3.0,87,0.01,,,0.51,,2013-04-20 03:43:00,
2013-04-19 23:53:00,41.0,37.0,29.77,West,281,3.0,6.0,86,0.00,,,0.51,,2013-04-20 03:53:00,